Time,TemperatureF,DewpointF,PressureIn,WindDirection,WindDirectionDegrees,WindSpeedMPH,WindSpeedGustMPH,Humidity,HourlyPrecipIn,Conditions,Clouds,dailyrainin,SoftwareType,DateUTC
2013-09-12 00:11:00,70.0,67.0,29.90,South,180,0.0,3.0,89,0.00,,,0.00,weatherlink.com 1.10,2013-09-12 04:11:00,
2013-09-12 00:26:00,69.9,66.0,29.91,South,180,0.0,2.0,88,0.00,,,0.00,weatherlink.com 1.10,2013-09-12 04:26:00,
2013-09-12 00:41:00,69.7,66.0,29.91,SW,219,4.0,6.0,89,0.00,,,0.00,weatherlink.com 1.10,2013-09-12 04:41:00,
2013-09-12 00:56:00,69.4,66.0,29.90,SSW,213,3.0,5.0,90,0.00,,,0.00,weatherlink.com 1.10,2013-09-12 04:56:00,
2013-09-12 01:11:00,69.5,67.0,29.89,SSW,206,3.0,7.0,90,0.00,,,0.00,weatherlink.com 1.10,2013-09-12 05:11:00,
2013-09-12 01:27:00,69.6,66.0,29.89,SW,228,3.0,4.0,89,0.00,,,0.00,weatherlink.com 1.10,2013-09-12 05:27:00,
2013-09-12 01:41:00,69.4,66.0,29.89,SW,227,2.0,4.0,89,0.00,,,0.00,weatherlink.com 1.10,2013-09-12 05:41:00,
2013-09-12 01:56:00,69.3,66.0,29.89,SSW,199,3.0,5.0,89,0.00,,,0.00,weatherlink.com 1.10,2013-09-12 05:56:00,
2013-09-12 02:11:00,69.1,66.0,29.89,SSW,199,2.0,4.0,89,0.00,,,0.00,weatherlink.com 1.10,2013-09-12 06:11:00,
2013-09-12 02:26:00,68.9,66.0,29.88,SSW,199,4.0,5.0,90,0.00,,,0.00,weatherlink.com 1.10,2013-09-12 06:26:00,
2013-09-12 02:41:00,68.9,66.0,29.88,SSW,208,4.0,5.0,90,0.00,,,0.00,weatherlink.com 1.10,2013-09-12 06:41:00,
2013-09-12 02:56:00,69.1,66.0,29.87,SSW,208,1.0,4.0,91,0.00,,,0.00,weatherlink.com 1.10,2013-09-12 06:56:00,
2013-09-12 03:11:00,69.0,66.0,29.87,SSW,208,0.0,0.0,90,0.00,,,0.00,weatherlink.com 1.10,2013-09-12 07:11:00,
2013-09-12 03:26:00,68.9,66.0,29.87,SSW,208,1.0,2.0,90,0.00,,,0.00,weatherlink.com 1.10,2013-09-12 07:26:00,
2013-09-12 03:41:00,68.9,66.0,29.87,SSW,208,1.0,4.0,91,0.00,,,0.00,weatherlink.com 1.10,2013-09-12 07:41:00,
2013-09-12 03:56:00,69.0,66.0,29.87,SSW,208,2.0,3.0,91,0.00,,,0.00,weatherlink.com 1.10,2013-09-12 07:56:00,
2013-09-12 04:11:00,69.0,67.0,29.86,SSW,208,0.0,1.0,92,0.00,,,0.00,weatherlink.com 1.10,2013-09-12 08:11:00,
2013-09-12 04:26:00,69.0,67.0,29.86,SSW,208,1.0,3.0,92,0.00,,,0.00,weatherlink.com 1.10,2013-09-12 08:26:00,
2013-09-12 04:41:00,69.1,67.0,29.86,SSW,208,3.0,3.0,93,0.00,,,0.00,weatherlink.com 1.10,2013-09-12 08:41:00,
2013-09-12 04:56:00,69.0,67.0,29.86,SSW,208,0.0,4.0,92,0.00,,,0.00,weatherlink.com 1.10,2013-09-12 08:56:00,
2013-09-12 05:11:00,69.0,67.0,29.86,SSW,208,0.0,2.0,93,0.00,,,0.00,weatherlink.com 1.10,2013-09-12 09:11:00,
2013-09-12 05:26:00,68.8,67.0,29.86,SSW,208,0.0,1.0,93,0.00,,,0.00,weatherlink.com 1.10,2013-09-12 09:26:00,
2013-09-12 05:41:00,68.9,67.0,29.86,SSW,208,3.0,3.0,93,0.00,,,0.00,weatherlink.com 1.10,2013-09-12 09:41:00,
2013-09-12 05:56:00,69.1,67.0,29.86,SSW,208,2.0,4.0,94,0.00,,,0.00,weatherlink.com 1.10,2013-09-12 09:56:00,
2013-09-12 06:12:00,69.4,68.0,29.85,SSW,207,3.0,4.0,94,0.00,,,0.00,weatherlink.com 1.10,2013-09-12 10:12:00,
2013-09-12 06:27:00,69.6,68.0,29.85,SSW,213,3.0,7.0,94,0.00,,,0.00,weatherlink.com 1.10,2013-09-12 10:27:00,
2013-09-12 06:42:00,69.9,68.0,29.85,SW,215,3.0,5.0,94,0.00,,,0.00,weatherlink.com 1.10,2013-09-12 10:42:00,
2013-09-12 06:57:00,70.3,69.0,29.85,SSW,207,4.0,6.0,94,0.00,,,0.00,weatherlink.com 1.10,2013-09-12 10:57:00,
2013-09-12 07:12:00,70.5,69.0,29.85,SSW,207,3.0,4.0,94,0.00,,,0.00,weatherlink.com 1.10,2013-09-12 11:12:00,
2013-09-12 07:27:00,70.6,69.0,29.85,SSW,205,2.0,5.0,94,0.00,,,0.00,weatherlink.com 1.10,2013-09-12 11:27:00,
2013-09-12 07:42:00,70.8,69.0,29.85,SSW,205,5.0,5.0,94,0.00,,,0.00,weatherlink.com 1.10,2013-09-12 11:42:00,
2013-09-12 07:57:00,71.5,70.0,29.84,SSW,200,7.0,8.0,95,0.00,,,0.00,weatherlink.com 1.10,2013-09-12 11:57:00,
2013-09-12 08:12:00,71.7,70.0,29.84,WSW,257,0.0,8.0,94,0.00,,,0.00,weatherlink.com 1.10,2013-09-12 12:12:00,
2013-09-12 08:27:00,71.7,70.0,29.83,WSW,257,0.0,3.0,94,0.00,,,0.00,weatherlink.com 1.10,2013-09-12 12:27:00,
2013-09-12 08:42:00,72.0,70.0,29.84,SW,223,4.0,4.0,94,0.00,,,0.00,weatherlink.com 1.10,2013-09-12 12:42:00,
2013-09-12 08:57:00,74.3,72.0,29.84,WSW,247,1.0,6.0,91,0.00,,,0.00,weatherlink.com 1.10,2013-09-12 12:57:00,
2013-09-12 09:12:00,75.3,71.0,29.83,WSW,249,4.0,10.0,87,0.00,,,0.00,weatherlink.com 1.10,2013-09-12 13:12:00,
2013-09-12 09:27:00,75.8,72.0,29.83,SW,228,7.0,10.0,87,0.00,,,0.00,weatherlink.com 1.10,2013-09-12 13:27:00,
2013-09-12 09:42:00,76.1,72.0,29.83,SSW,203,7.0,11.0,87,0.00,,,0.00,weatherlink.com 1.10,2013-09-12 13:42:00,
2013-09-12 09:57:00,76.5,72.0,29.82,WSW,246,9.0,11.0,87,0.00,,,0.00,weatherlink.com 1.10,2013-09-12 13:57:00,
2013-09-12 10:12:00,76.7,72.0,29.82,SW,219,6.0,12.0,86,0.00,,,0.00,weatherlink.com 1.10,2013-09-12 14:12:00,
2013-09-12 10:27:00,77.6,73.0,29.82,WSW,258,6.0,13.0,86,0.00,,,0.00,weatherlink.com 1.10,2013-09-12 14:27:00,
2013-09-12 10:42:00,78.6,74.0,29.81,SW,229,4.0,14.0,85,0.00,,,0.00,weatherlink.com 1.10,2013-09-12 14:42:00,
2013-09-12 10:57:00,79.1,74.0,29.80,WSW,242,7.0,12.0,83,0.00,,,0.00,weatherlink.com 1.10,2013-09-12 14:57:00,
2013-09-12 11:12:00,79.7,74.0,29.79,SW,236,8.0,12.0,82,0.00,,,0.00,weatherlink.com 1.10,2013-09-12 15:12:00,
2013-09-12 11:27:00,79.7,73.0,29.79,WSW,246,6.0,11.0,81,0.00,,,0.00,weatherlink.com 1.10,2013-09-12 15:27:00,
2013-09-12 11:43:00,79.4,74.0,29.79,WSW,257,5.0,10.0,82,0.00,,,0.00,weatherlink.com 1.10,2013-09-12 15:43:00,
2013-09-12 11:58:00,79.7,75.0,29.78,SW,227,6.0,13.0,84,0.00,,,0.00,weatherlink.com 1.10,2013-09-12 15:58:00,
2013-09-12 12:13:00,81.3,75.0,29.78,WSW,246,6.0,13.0,80,0.00,,,0.00,weatherlink.com 1.10,2013-09-12 16:13:00,
2013-09-12 12:28:00,81.8,74.0,29.77,West,262,5.0,11.0,78,0.00,,,0.00,weatherlink.com 1.10,2013-09-12 16:28:00,
2013-09-12 12:43:00,81.1,74.0,29.76,WSW,250,7.0,12.0,80,0.00,,,0.00,weatherlink.com 1.10,2013-09-12 16:43:00,
2013-09-12 12:58:00,80.3,74.0,29.77,West,267,6.0,11.0,81,0.00,,,0.00,weatherlink.com 1.10,2013-09-12 16:58:00,
2013-09-12 13:13:00,78.7,74.0,29.77,SW,232,8.0,15.0,85,0.00,,,0.00,weatherlink.com 1.10,2013-09-12 17:13:00,
2013-09-12 13:28:00,76.2,70.0,29.76,SSW,209,8.0,15.0,80,0.00,,,0.00,weatherlink.com 1.10,2013-09-12 17:28:00,
2013-09-12 13:43:00,74.3,70.0,29.75,SSW,210,7.0,11.0,86,0.00,,,0.00,weatherlink.com 1.10,2013-09-12 17:43:00,
2013-09-12 13:58:00,73.7,71.0,29.74,SW,221,6.0,9.0,90,0.00,,,0.00,weatherlink.com 1.10,2013-09-12 17:58:00,
2013-09-12 14:13:00,74.4,72.0,29.72,SW,217,4.0,8.0,92,0.00,,,0.00,weatherlink.com 1.10,2013-09-12 18:13:00,
2013-09-12 14:28:00,76.4,74.0,29.71,SW,221,7.0,9.0,91,0.00,,,0.00,weatherlink.com 1.10,2013-09-12 18:28:00,
2013-09-12 14:43:00,78.2,74.0,29.71,SW,225,7.0,14.0,88,0.00,,,0.00,weatherlink.com 1.10,2013-09-12 18:43:00,
2013-09-12 14:58:00,78.9,74.0,29.71,WSW,250,7.0,14.0,86,0.00,,,0.00,weatherlink.com 1.10,2013-09-12 18:58:00,
2013-09-12 15:13:00,79.7,73.0,29.70,WSW,240,7.0,21.0,81,0.00,,,0.00,weatherlink.com 1.10,2013-09-12 19:13:00,
2013-09-12 15:28:00,80.1,74.0,29.70,WSW,243,7.0,14.0,81,0.00,,,0.00,weatherlink.com 1.10,2013-09-12 19:28:00,
2013-09-12 15:43:00,79.7,73.0,29.69,West,259,6.0,15.0,79,0.00,,,0.00,weatherlink.com 1.10,2013-09-12 19:43:00,
2013-09-12 15:58:00,79.7,72.0,29.69,WSW,257,9.0,15.0,78,0.00,,,0.00,weatherlink.com 1.10,2013-09-12 19:58:00,
2013-09-12 16:13:00,79.3,72.0,29.68,SW,218,9.0,15.0,77,0.00,,,0.00,weatherlink.com 1.10,2013-09-12 20:13:00,
2013-09-12 16:28:00,77.5,71.0,29.66,WSW,256,6.0,11.0,81,0.00,,,0.00,weatherlink.com 1.10,2013-09-12 20:28:00,
2013-09-12 16:43:00,76.6,71.0,29.66,SW,223,5.0,10.0,83,0.00,,,0.00,weatherlink.com 1.10,2013-09-12 20:43:00,
2013-09-12 16:58:00,76.5,71.0,29.66,SW,214,5.0,10.0,84,0.00,,,0.00,weatherlink.com 1.10,2013-09-12 20:58:00,
2013-09-12 17:13:00,76.4,72.0,29.65,SSW,209,5.0,7.0,85,0.00,,,0.00,weatherlink.com 1.10,2013-09-12 21:13:00,
2013-09-12 17:28:00,76.3,72.0,29.64,SSW,213,5.0,8.0,86,0.00,,,0.00,weatherlink.com 1.10,2013-09-12 21:28:00,
2013-09-12 17:43:00,76.6,73.0,29.64,SW,230,5.0,8.0,87,0.00,,,0.00,weatherlink.com 1.10,2013-09-12 21:43:00,
2013-09-12 17:58:00,76.7,73.0,29.64,SW,226,4.0,5.0,87,0.00,,,0.00,weatherlink.com 1.10,2013-09-12 21:58:00,
2013-09-12 18:13:00,76.4,73.0,29.63,SSW,196,3.0,6.0,88,0.00,,,0.00,weatherlink.com 1.10,2013-09-12 22:13:00,
2013-09-12 18:28:00,76.0,72.0,29.62,SSW,193,2.0,6.0,88,0.00,,,0.00,weatherlink.com 1.10,2013-09-12 22:28:00,
2013-09-12 18:43:00,75.6,72.0,29.63,SSW,211,3.0,5.0,89,0.00,,,0.00,weatherlink.com 1.10,2013-09-12 22:43:00,
2013-09-12 18:58:00,75.1,72.0,29.63,SSW,210,3.0,5.0,90,0.00,,,0.00,weatherlink.com 1.10,2013-09-12 22:58:00,
2013-09-12 19:13:00,74.8,72.0,29.62,SSW,208,5.0,5.0,91,0.00,,,0.00,weatherlink.com 1.10,2013-09-12 23:13:00,
2013-09-12 19:28:00,74.4,72.0,29.61,SSW,199,2.0,5.0,91,0.00,,,0.00,weatherlink.com 1.10,2013-09-12 23:28:00,
2013-09-12 19:43:00,72.4,69.0,29.64,West,264,5.0,13.0,90,0.00,,,0.00,weatherlink.com 1.10,2013-09-12 23:43:00,
2013-09-12 19:58:00,70.8,68.0,29.66,WSW,246,4.0,8.0,91,0.00,,,0.00,weatherlink.com 1.10,2013-09-12 23:58:00,
2013-09-12 20:14:00,69.9,68.0,29.67,SSW,203,2.0,6.0,92,0.00,,,0.00,weatherlink.com 1.10,2013-09-13 00:14:00,
2013-09-12 20:29:00,69.3,68.0,29.66,ESE,118,3.0,4.0,94,0.00,,,0.00,weatherlink.com 1.10,2013-09-13 00:29:00,
2013-09-12 20:44:00,68.8,67.0,29.66,East,93,0.0,1.0,95,0.00,,,0.00,weatherlink.com 1.10,2013-09-13 00:44:00,
2013-09-12 20:59:00,68.6,67.0,29.66,East,93,0.0,0.0,95,0.00,,,0.00,weatherlink.com 1.10,2013-09-13 00:59:00,
2013-09-12 21:14:00,68.4,67.0,29.65,East,93,0.0,0.0,96,0.00,,,0.00,weatherlink.com 1.10,2013-09-13 01:14:00,
2013-09-12 21:29:00,68.2,67.0,29.64,East,93,0.0,0.0,95,0.00,,,0.00,weatherlink.com 1.10,2013-09-13 01:29:00,
2013-09-12 21:44:00,68.0,67.0,29.65,East,93,0.0,0.0,96,0.00,,,0.00,weatherlink.com 1.10,2013-09-13 01:44:00,
2013-09-12 21:59:00,67.8,67.0,29.66,East,93,0.0,0.0,96,0.00,,,0.00,weatherlink.com 1.10,2013-09-13 01:59:00,
2013-09-12 22:14:00,67.7,67.0,29.65,East,93,0.0,0.0,96,0.00,,,0.00,weatherlink.com 1.10,2013-09-13 02:14:00,
2013-09-12 22:29:00,67.7,67.0,29.64,East,93,0.0,0.0,96,0.00,,,0.00,weatherlink.com 1.10,2013-09-13 02:29:00,
2013-09-12 22:44:00,67.6,67.0,29.64,East,93,0.0,0.0,96,0.00,,,0.00,weatherlink.com 1.10,2013-09-13 02:44:00,
2013-09-12 22:59:00,67.6,67.0,29.63,East,93,0.0,0.0,96,0.00,,,0.00,weatherlink.com 1.10,2013-09-13 02:59:00,
2013-09-12 23:14:00,67.5,66.0,29.63,East,93,0.0,0.0,96,0.00,,,0.00,weatherlink.com 1.10,2013-09-13 03:14:00,
2013-09-12 23:29:00,67.5,67.0,29.63,East,93,1.0,2.0,97,0.00,,,0.00,weatherlink.com 1.10,2013-09-13 03:29:00,
2013-09-12 23:44:00,67.6,67.0,29.64,West,261,1.0,4.0,97,0.00,,,0.00,weatherlink.com 1.10,2013-09-13 03:44:00,
2013-09-12 23:59:00,67.7,67.0,29.64,WNW,300,1.0,4.0,97,0.00,,,0.00,weatherlink.com 1.10,2013-09-13 03:59:00,